Flag for Canada Weather past 2 weeks in Clarington, Ontario, Canada

Now
45 °F

Sunny.


Feels Like: 45 °F
Forecast: 46 / 64 °F
Wind: No wind

Location: Peterborough Airport

Current Time: Jun 3, 2015 at 7:55:36 AM

Latest Report: Jun 3, 2015 at 7:00 AM


Visibility: 9 mi

Pressure: 30.25 "Hg

Humidity: 100%

Dew point: 45 °F

Location of ClaringtonLocation

Historic Weather in Clarington — Graph

°F

Clarington temperature yesterday

Maximum temperature yesterday: 68 °F (at 2:00 PM)
Minimum temperature yesterday: 39 °F (at 6:00 AM)
Average temperature yesterday: 53 °F

Past Weeks' High & Low Weather Summary

 TemperatureHumidityPressure
High81 °F (May 26, 12:00 PM)100% (May 23, 3:00 AM)30.40 "Hg (May 23, 3:00 AM)
Low28 °F (May 23, 3:00 AM)23% (May 20, 5:00 PM)29.82 "Hg (May 21, 6:00 PM)
Average58 °F70%30.09 "Hg
* Reported May 19 7:00 AM — Jun 3 7:00 AM, Clarington, Weather by CustomWeather, © 2015

Note: Actual official high and low records may vary slightly from our data, if they occured in-between our weather recording intervals... More about our weather records

Advertising

Clarington weather history for previous 24 hours

 ConditionsComfort  
Time TempWeatherWind HumidityBarometerVisibility
7:00 AM
Wed, Jun 3
45 °FSunny.No wind100%30.25 "Hg9 mi
6:00 AM39 °FClear.No wind100%30.24 "Hg9 mi
5:00 AM41 °FClear.No wind100%30.23 "Hg9 mi
4:03 AM41 °FFog.No wind100%30.22 "Hg3 mi
3:00 AM43 °FClear.No wind100%30.22 "Hg9 mi
2:00 AM43 °FClear.No wind100%30.23 "Hg9 mi
1:00 AM45 °FClear.No wind100%30.23 "Hg9 mi
12:00 AM45 °FClear.2 mph100%30.24 "Hg9 mi
11:00 PM
Tue, Jun 2
48 °FClear.No wind94%30.23 "Hg9 mi
10:00 PM50 °FClear.No wind88%30.23 "Hg9 mi
9:00 PM54 °FSunny.6 mph77%30.21 "Hg9 mi
8:00 PM57 °FSunny.8 mph67%30.19 "Hg9 mi
7:00 PM61 °FSunny.12 mph63%30.16 "Hg9 mi
6:00 PM63 °FSunny.10 mph64%30.16 "Hg9 mi
5:00 PM63 °FSunny.15 mph64%30.16 "Hg9 mi
4:00 PM66 °FSunny.15 mph60%30.17 "Hg9 mi
3:00 PM68 °FScattered clouds.8 mph56%30.17 "Hg9 mi
2:00 PM68 °FPassing clouds.7 mph49%30.18 "Hg9 mi
1:00 PM66 °FScattered clouds.9 mph43%30.20 "Hg9 mi
12:00 PM64 °FPassing clouds.8 mph52%30.20 "Hg9 mi
11:00 AM61 °FSunny.3 mph59%30.21 "Hg9 mi
10:00 AM59 °FSunny.8 mph68%30.22 "Hg9 mi
9:00 AM55 °FSunny.9 mph72%30.22 "Hg9 mi
8:00 AM52 °FSunny.8 mph82%30.22 "Hg9 mi
7:00 AM46 °FSunny.3 mph100%30.22 "Hg9 mi
Weather by CustomWeather, © 2015

See weather overviewHow to use our weather pages